Regional Weather Roundup
Issued by NWS

Home | Current Version | Previous Version | Text Only | Print | Product List | Glossary Off
Versions: 1 2 3 4 5 6 7 8 9 10 11 12 13 14 15 16 17 18 19 20 21 22 23 24 25 26 27 28 29 30 31 32 33 34 35 36 37 38 39 40 41 42 43 44 45 46 47 48 49 50

000
ASUS44 KMEG 180800
RWRTN
TENNESSEE HOURLY STATE WEATHER ROUNDUP
NATIONAL WEATHER SERVICE MEMPHIS TN
200 AM CST THU JAN 18 2018

TNZ002-004-019-021-049-052-054-088>092-180900-
WEST TENNESSEE

CITY           SKY/WX    TMP DP  RH WIND       PRES   REMARKS
MEMPHIS INTL   FAIR      13   9  84 S5        30.58F WCI   5
NWS MEMPHIS      N/A     11 N/A N/A MISG        N/A
JACKSON        FAIR       4   1  88 CALM      30.58F
DYERSBURG      FAIR       5   1  83 CALM      30.58F
$$

TNZ008-025-027-028-033-062-065-066-180900-
NORTH MIDDLE TENNESSEE

CITY           SKY/WX    TMP DP  RH WIND       PRES   REMARKS
NASHVILLE      FAIR       9   5  84 S3        30.54F
CLARKSVILLE    FAIR       5   1  83 CALM      30.53F
SMYRNA         FAIR       5   1  83 CALM      30.56S
CROSSVILLE     MOCLDY     7   4  87 W3        30.41R
$$

TNZ061-075-076-078-094-096-097-180900-
SOUTH MIDDLE TENNESSEE

CITY           SKY/WX    TMP DP  RH WIND       PRES   REMARKS
WINCHESTER     CLEAR      3   1  92 CALM      30.51S
$$

TNZ017-018-042-046-047-180900-
NORTHEAST TENNESSEE

CITY           SKY/WX    TMP DP  RH WIND       PRES   REMARKS
TRI CITIES     FAIR       7   5  91 SW3       30.41S
$$

TNZ012-013-036-069-073-074-180900-
CENTRAL EAST TENNESSEE

CITY           SKY/WX    TMP DP  RH WIND       PRES   REMARKS
KNOXVILLE      FAIR      10   6  84 CALM      30.47R
OAK RIDGE      FAIR      10   7  87 CALM      30.50R
$$

TNZ083-085-099-180900-
SOUTHEAST TENNESSEE

CITY           SKY/WX    TMP DP  RH WIND       PRES   REMARKS
CHATTANOOGA    FAIR      15   8  73 CALM      30.51F
$$

SKY/WX REPORTED AS FAIR MEANS FEW OR NO CLOUDS BELOW
12 THOUSAND FEET.





USA.gov is the U.S. government's official web portal to all federal, state and local government web resources and services.